Weather History for Rome, GA

Change the Weather History Date:

Tuesday, September 2, 2014

  Actual Average Record
Temperature  
Mean Temperature 81 °F 76 °F  
Max Temperature 94 °F 88 °F 99 °F (2011)
Min Temperature 67 °F 65 °F 57 °F (1999)
Degree Days  
Heating Degree Days 0 0  
Month to date heating degree days 0 0  
Since 1 July heating degree days 0 0  
Cooling Degree Days 16 11  
Month to date cooling degree days 33 22  
Year to date cooling degree days 1399 1388  
Growing Degree Days 30 (Base 50)    
Moisture  
Dew Point 70 °F    
Average Humidity 72    
Maximum Humidity 100    
Minimum Humidity 44    
Precipitation  
Precipitation 0.05 in 0.10 in 0.84 in (2013)
Month to date precipitation 0.05 0.19  
Year to date precipitation 33.21 35.61  
Sea Level Pressure  
Sea Level Pressure 30.02 in    
Wind  
Wind Speed 4 mph (SW)    
Max Wind Speed 18 mph    
Max Gust Speed 23 mph    
Visibility 10 miles    
Events Rain , Thunderstorm    
T = Trace of Precipitation, MM = Missing Value Source: NWS Daily Summary

Daily Weather History Graph

Daily Weather History Graph

Search for Another Location

Airport:

Trip Planner

Search our weather history database for the weather conditions in past years. The results will help you decide how hot, cold, wet, or windy it might be!

Date:

Astronomy

Sep. 02, 2014 Rise Set
Actual Time 7:14 AM EDT 8:05 PM EDT
Civil Twilight 6:49 AM EDT 8:30 PM EDT
Nautical Twilight 6:18 AM EDT 9:01 PM EDT
Astronomical Twilight 5:47 AM EDT 9:32 PM EDT
Moon 2:39 PM EDT (9/2) 12:24 AM EDT (9/2)
Length of Visible Light 13h 41m
Length of Day
12h 50m
First Quarter, 52% of the Moon is Illuminated
Sep 2
First Quarter
Sep 8
Full
Sep 15
Last Quarter
Sep 24
New
Oct 1
First Quarter

Hourly Weather History & Observations

Time (EDT) Temp. Heat Index Dew Point Humidity Pressure Visibility Wind Dir Wind Speed Gust Speed Precip Events Conditions
12:53 AM 72.0 °F - 70.0 °F 93% 30.05 in 10.0 mi Calm Calm - N/A   Clear
1:53 AM 72.0 °F - 70.0 °F 93% 30.05 in 10.0 mi North 3.5 mph - N/A   Clear
2:53 AM 70.0 °F - 69.1 °F 97% 30.05 in 10.0 mi Calm Calm - N/A   Clear
3:53 AM 71.1 °F - 69.1 °F 93% 30.05 in 10.0 mi Calm Calm - N/A   Clear
4:53 AM 69.1 °F - 68.0 °F 96% 30.05 in 9.0 mi Calm Calm - N/A   Clear
5:53 AM 70.0 °F - 68.0 °F 93% 30.05 in 10.0 mi Calm Calm - N/A   Clear
6:53 AM 69.1 °F - 68.0 °F 96% 30.07 in 8.0 mi Calm Calm - N/A   Clear
7:53 AM 69.1 °F - 66.9 °F 93% 30.08 in 10.0 mi Calm Calm - N/A   Clear
8:53 AM 73.9 °F - 70.0 °F 87% 30.08 in 10.0 mi Calm Calm - N/A   Clear
9:53 AM 79.0 °F - 71.1 °F 77% 30.08 in 10.0 mi SSW 3.5 mph - N/A   Clear
10:53 AM 86.0 °F 92.2 °F 72.0 °F 63% 30.08 in 10.0 mi North - - N/A   Clear
11:53 AM 88.0 °F 94.7 °F 72.0 °F 59% 30.07 in 10.0 mi SW 4.6 mph - N/A   Clear
12:53 PM 88.0 °F 93.8 °F 71.1 °F 57% 30.06 in 10.0 mi WNW 8.1 mph - N/A   Overcast
1:45 PM 91.9 °F 98.4 °F 71.1 °F 50% 30.06 in 10.0 mi WSW 6.9 mph - N/A Thunderstorm Mostly Cloudy
1:53 PM 91.9 °F 98.4 °F 71.1 °F 50% 30.03 in 10.0 mi WSW 6.9 mph - N/A Thunderstorm Partly Cloudy
2:00 PM 93.0 °F 100.1 °F 71.1 °F 49% 30.06 in 10.0 mi Variable 3.5 mph - N/A   Scattered Clouds
2:53 PM 93.0 °F 97.4 °F 68.0 °F 44% 30.00 in 10.0 mi WSW 12.7 mph 18.4 mph N/A   Partly Cloudy
3:53 PM 93.0 °F 97.4 °F 68.0 °F 44% 29.98 in 10.0 mi South 10.4 mph 17.3 mph N/A   Partly Cloudy
4:53 PM 86.0 °F 91.5 °F 71.1 °F 61% 29.95 in 10.0 mi SSE 13.8 mph - N/A   Partly Cloudy
5:53 PM 89.1 °F 96.0 °F 72.0 °F 57% 29.93 in 10.0 mi South 8.1 mph - N/A   Clear
6:53 PM 89.1 °F 96.0 °F 72.0 °F 57% 29.92 in 10.0 mi South 8.1 mph - N/A   Clear
7:53 PM 84.9 °F 90.7 °F 72.0 °F 65% 29.95 in 10.0 mi SSE 5.8 mph - N/A   Clear
8:53 PM 82.0 °F 86.7 °F 72.0 °F 71% 29.96 in 10.0 mi WNW 3.5 mph - N/A   Clear
9:53 PM 80.1 °F 83.8 °F 72.0 °F 76% 29.97 in 10.0 mi West 3.5 mph - N/A   Partly Cloudy
10:00 PM 79.0 °F - 73.0 °F 82% 30.01 in 10.0 mi West 4.6 mph - N/A Thunderstorm Partly Cloudy
10:16 PM 81.0 °F 84.9 °F 71.1 °F 72% 30.02 in 10.0 mi WSW 15.0 mph - N/A Thunderstorm Thunderstorm
10:31 PM 77.0 °F - 66.2 °F 69% 30.02 in 10.0 mi WSW 12.7 mph 18.4 mph N/A Thunderstorm Overcast
10:53 PM 73.4 °F - 68.0 °F 83% 30.02 in 10.0 mi Calm Calm - N/A Rain Light Rain
11:53 PM 73.0 °F - 71.1 °F 93% 30.00 in 9.0 mi Calm Calm - 0.02 in Rain Light Rain